Starlink 11311

operational
NORAD ID: 61253 Int'l Des: 2024-175 Owner: SPXS Country: US Constellation: starlink
LEOCIRCULAR

Starlink 11311について

説明を読み込み中...

リアルタイム位置

3D地球を読み込み中...

次回通過

高度履歴

Altitude vs Time

uPlot chart will show altitude changes over time

軌道要素

1 61253U 24175L 25306.47709647 .00002179 00000-0 22833-4 0 9997
2 61253 53.1587 323.5717 0001463 63.2971 296.8196 15.69721320 64599
Epoch: Nov 2, 2025 • Age: 29 hours

現在のステータス

高度 378.3 km
速度 7.68 km/s
衛星直下点 -51.08°S, 78.75°W
打ち上げ日 Sep 25, 2024
運用期間 1.1 years
タイプ internet

技術仕様

分類 Payload
質量 960.00 kg
乾燥質量 910.00 kg
総質量 960.00 kg
長さ 0.30 m
直径 4.10 m
スパン 29.00 m
形状 Box + pan
製造者 SPXS
バスタイプ Starlink V2MD
フェーズステータス In Orbit
所有者/国 SPXS/US

大規模コンステレーション

Loading constellations...